Location: Antioch Baptist Church
(32.6696°N, 85.7327°W)
Time: 20:41:30
(UTC+00:00)

Cosmos 2366 rocket - Pass Details

Date: 14 July 2020
Orbit: 954 x 998 km, 82.9° (Epoch: 13 August)

Event Time Altitude Azimuth Distance (km) Brightness Sun altitude
Exits shadow 04:03:45 54° 61° (ENE) 1,198 4.3 -30.2°
Drops below altitude 10° 04:09:06 10° 15° (NNE) 2,761 6.9 -30.7°
Sets 04:11:40 0° 11° (NNE) 3,708 7.7 -31.0°
